EWG563 EDDH-EDDS

Flight info

Callsign EWG563
Flight time 0h 57m
Altitude 35000
Route IDEKO7G IDEKO N850 NIE DCT BERXO DCT SILWE DCT OSBIT P605 TOSTU T726 LBU
Aircraft A320/M-SDE3FGHIRWY/LB1

Departure

Time 2026-04-26 17:54
Airport Hamburg Helmut Schmidt Airport (EDDH)

Arrival

Time 2026-04-26 18:51
Airport Stuttgart Airport (EDDS)
Time Latitude Longitude Altitude Speed Heading
2026-04-26 17:05 53.63248 9.99913 48 ft 0 kts 142°
2026-04-26 17:44 53.63253 9.99907 50 ft 4 kts 140°
2026-04-26 17:45 53.63271 9.99879 50 ft 2 kts 142°
2026-04-26 17:45 53.63291 9.99858 49 ft 4 kts 163°
2026-04-26 17:45 53.63315 9.99855 45 ft 4 kts 202°
2026-04-26 17:45 53.63330 9.99870 47 ft 0 kts 230°
2026-04-26 17:49 53.63326 9.99862 46 ft 1 kts 231°
2026-04-26 17:49 53.63309 9.99827 47 ft 7 kts 232°
2026-04-26 17:49 53.63280 9.99767 50 ft 6 kts 224°
2026-04-26 17:50 53.63226 9.99761 50 ft 12 kts 158°
2026-04-26 17:50 53.63144 9.99831 50 ft 13 kts 153°
2026-04-26 17:50 53.63068 9.99896 50 ft 12 kts 153°
2026-04-26 17:50 53.63000 9.99954 50 ft 10 kts 153°
2026-04-26 17:51 53.62948 9.99999 50 ft 7 kts 153°
2026-04-26 17:51 53.62909 10.00032 50 ft 4 kts 154°
2026-04-26 17:51 53.62884 10.00039 50 ft 3 kts 185°
2026-04-26 17:51 53.62866 10.00019 50 ft 3 kts 222°
2026-04-26 17:52 53.62855 9.99992 50 ft 4 kts 240°
2026-04-26 17:52 53.62830 9.99913 50 ft 10 kts 243°
2026-04-26 17:52 53.62806 9.99831 49 ft 5 kts 245°
2026-04-26 17:52 53.62813 9.99789 48 ft 4 kts 320°
2026-04-26 17:53 53.62831 9.99774 49 ft 0 kts 334°
2026-04-26 17:53 53.62833 9.99773 49 ft 5 kts 334°
2026-04-26 17:53 53.63110 9.99534 50 ft 80 kts 333°
2026-04-26 17:54 53.64699 9.98151 498 ft 145 kts 329°
2026-04-26 17:54 53.65605 9.97353 1243 ft 148 kts 332°
2026-04-26 17:54 53.66570 9.96531 1667 ft 166 kts 332°
2026-04-26 17:54 53.67655 9.95608 1995 ft 188 kts 332°
2026-04-26 17:55 53.68899 9.94553 2479 ft 207 kts 331°
2026-04-26 17:55 53.70194 9.93447 3288 ft 212 kts 329°
2026-04-26 17:55 53.71370 9.91920 3892 ft 222 kts 303°
2026-04-26 17:55 53.71969 9.89441 4323 ft 240 kts 272°
2026-04-26 17:56 53.71621 9.86661 5074 ft 250 kts 240°
2026-04-26 17:56 53.68636 9.83493 6686 ft 271 kts 202°
2026-04-26 17:57 53.64965 9.81447 8274 ft 284 kts 201°
2026-04-26 17:57 53.63062 9.80407 9085 ft 290 kts 201°
2026-04-26 17:57 53.61124 9.79339 9875 ft 296 kts 201°
2026-04-26 17:57 53.59144 9.78239 10561 ft 306 kts 201°
2026-04-26 17:58 53.52519 9.74516 11961 ft 350 kts 201°
2026-04-26 17:59 53.47846 9.71905 13482 ft 357 kts 201°
2026-04-26 17:59 53.45510 9.70595 14207 ft 361 kts 202°
2026-04-26 17:59 53.43116 9.69252 14882 ft 364 kts 202°
2026-04-26 17:59 53.40704 9.67901 15553 ft 367 kts 202°
2026-04-26 18:00 53.38273 9.66547 16226 ft 369 kts 202°
2026-04-26 18:00 53.35819 9.65183 16881 ft 373 kts 202°
2026-04-26 18:00 53.33350 9.63811 17554 ft 375 kts 202°
2026-04-26 18:00 53.30870 9.62431 18238 ft 377 kts 202°
2026-04-26 18:01 53.28370 9.61038 18855 ft 380 kts 202°
2026-04-26 18:01 53.25890 9.59657 19406 ft 383 kts 202°
2026-04-26 18:01 53.23354 9.58250 19966 ft 385 kts 202°
2026-04-26 18:01 53.20799 9.56835 20525 ft 388 kts 202°
2026-04-26 18:02 53.18223 9.55411 21081 ft 392 kts 202°
2026-04-26 18:02 53.17350 9.54929 21266 ft 393 kts 202°
2026-04-26 18:02 53.13012 9.52532 22180 ft 398 kts 202°
2026-04-26 18:02 53.10376 9.51076 22725 ft 401 kts 202°
2026-04-26 18:03 53.07716 9.49611 23255 ft 404 kts 202°
2026-04-26 18:03 53.05034 9.48137 23775 ft 407 kts 202°
2026-04-26 18:03 53.02333 9.46655 24222 ft 410 kts 202°
2026-04-26 18:03 52.99593 9.45252 24647 ft 415 kts 197°
2026-04-26 18:04 52.96723 9.44465 25066 ft 421 kts 191°
2026-04-26 18:04 52.93810 9.43851 25483 ft 423 kts 191°
2026-04-26 18:04 52.90924 9.43235 25879 ft 425 kts 191°
2026-04-26 18:05 52.85025 9.41968 26641 ft 430 kts 191°
2026-04-26 18:05 52.82053 9.41338 27026 ft 432 kts 191°
2026-04-26 18:05 52.79067 9.40703 27402 ft 434 kts 191°
2026-04-26 18:05 52.76064 9.40066 27767 ft 436 kts 191°
2026-04-26 18:06 52.73034 9.39423 28128 ft 439 kts 191°
2026-04-26 18:06 52.70031 9.38791 28480 ft 441 kts 191°
2026-04-26 18:06 52.66981 9.38151 28827 ft 443 kts 192°
2026-04-26 18:06 52.63891 9.37699 29163 ft 449 kts 185°
2026-04-26 18:07 52.60749 9.38008 29467 ft 456 kts 175°
2026-04-26 18:07 52.57626 9.39067 29775 ft 461 kts 170°
2026-04-26 18:07 52.54495 9.40258 30090 ft 463 kts 170°
2026-04-26 18:07 52.52411 9.41044 30289 ft 464 kts 171°
2026-04-26 18:08 52.48220 9.42610 30628 ft 467 kts 171°
2026-04-26 18:08 52.45042 9.43795 30875 ft 469 kts 171°
2026-04-26 18:08 52.41852 9.44977 31114 ft 471 kts 171°
2026-04-26 18:08 52.38651 9.46157 31335 ft 473 kts 171°
2026-04-26 18:09 52.35410 9.47353 31539 ft 475 kts 171°
2026-04-26 18:09 52.32210 9.48534 31771 ft 476 kts 171°
2026-04-26 18:09 52.28982 9.49735 32095 ft 475 kts 170°
2026-04-26 18:09 52.25758 9.50936 32401 ft 475 kts 170°
2026-04-26 18:10 52.22537 9.52133 32713 ft 475 kts 170°
2026-04-26 18:10 52.19362 9.53310 33020 ft 474 kts 170°
2026-04-26 18:10 52.16149 9.54493 33257 ft 474 kts 171°
2026-04-26 18:11 52.09717 9.56846 33300 ft 474 kts 170°
2026-04-26 18:11 52.03284 9.59200 33297 ft 474 kts 170°
2026-04-26 18:12 51.96812 9.60790 33300 ft 469 kts 180°
2026-04-26 18:12 51.90298 9.61436 33295 ft 469 kts 180°
2026-04-26 18:13 51.83773 9.62049 33292 ft 470 kts 180°
2026-04-26 18:13 51.77246 9.62654 33292 ft 470 kts 180°
2026-04-26 18:14 51.70751 9.63276 33691 ft 471 kts 180°
2026-04-26 18:14 51.67485 9.63592 34021 ft 470 kts 180°
2026-04-26 18:14 51.64230 9.63899 34312 ft 469 kts 180°
2026-04-26 18:14 51.60965 9.64204 34589 ft 469 kts 180°
2026-04-26 18:15 51.57712 9.64514 34858 ft 468 kts 180°
2026-04-26 18:15 51.54456 9.64825 35134 ft 467 kts 180°
2026-04-26 18:15 51.51258 9.65130 35265 ft 465 kts 180°
2026-04-26 18:16 51.44869 9.65735 35278 ft 457 kts 180°
2026-04-26 18:16 51.35361 9.66622 35274 ft 456 kts 180°
2026-04-26 18:17 51.29025 9.67207 35281 ft 456 kts 180°
2026-04-26 18:17 51.22738 9.67802 35285 ft 456 kts 180°
2026-04-26 18:18 51.16407 9.68399 35267 ft 456 kts 179°
2026-04-26 18:18 51.10081 9.68973 35270 ft 455 kts 180°
2026-04-26 18:19 51.03755 9.69558 35269 ft 455 kts 179°
2026-04-26 18:19 50.97436 9.70152 35271 ft 455 kts 179°
2026-04-26 18:20 50.91238 9.70728 35204 ft 437 kts 179°
2026-04-26 18:20 50.88247 9.71009 35080 ft 424 kts 180°
2026-04-26 18:20 50.87256 9.71101 35037 ft 420 kts 180°
2026-04-26 18:21 50.82511 9.71532 34799 ft 402 kts 180°
2026-04-26 18:21 50.79736 9.71780 34458 ft 398 kts 180°
2026-04-26 18:21 50.76974 9.72027 34004 ft 397 kts 180°
2026-04-26 18:21 50.74224 9.72269 33468 ft 397 kts 180°
2026-04-26 18:22 50.71489 9.72509 32909 ft 398 kts 180°
2026-04-26 18:22 50.68723 9.72756 32354 ft 399 kts 180°
2026-04-26 18:22 50.65944 9.73009 31804 ft 400 kts 179°
2026-04-26 18:22 50.63158 9.73264 31347 ft 401 kts 179°
2026-04-26 18:23 50.60361 9.73518 30896 ft 402 kts 179°
2026-04-26 18:23 50.57569 9.73773 30457 ft 403 kts 179°
2026-04-26 18:23 50.54792 9.74028 29961 ft 404 kts 179°
2026-04-26 18:23 50.51970 9.74283 29454 ft 405 kts 179°
2026-04-26 18:24 50.49155 9.74537 28949 ft 405 kts 179°
2026-04-26 18:24 50.46338 9.74791 28442 ft 406 kts 179°
2026-04-26 18:24 50.43519 9.75045 27963 ft 406 kts 179°
2026-04-26 18:24 50.40731 9.75297 27536 ft 406 kts 179°
2026-04-26 18:25 50.37912 9.75551 27150 ft 406 kts 179°
2026-04-26 18:25 50.35099 9.75805 26759 ft 404 kts 179°
2026-04-26 18:25 50.32305 9.76055 26380 ft 401 kts 179°
2026-04-26 18:25 50.29523 9.76308 26005 ft 399 kts 179°
2026-04-26 18:26 50.26755 9.76561 25632 ft 396 kts 179°
2026-04-26 18:26 50.24009 9.76686 25258 ft 391 kts 187°
2026-04-26 18:26 50.21351 9.75970 24896 ft 387 kts 194°
2026-04-26 18:26 50.18721 9.75106 24540 ft 385 kts 194°
2026-04-26 18:27 50.16110 9.74242 24285 ft 383 kts 194°
2026-04-26 18:27 50.13542 9.73391 24258 ft 382 kts 194°
2026-04-26 18:27 50.10933 9.72528 24267 ft 383 kts 194°
2026-04-26 18:27 50.08325 9.71668 24259 ft 383 kts 194°
2026-04-26 18:28 50.05723 9.70810 24266 ft 383 kts 194°
2026-04-26 18:28 50.03105 9.69947 24260 ft 383 kts 194°
2026-04-26 18:28 50.00497 9.69089 24254 ft 383 kts 194°
2026-04-26 18:28 49.97885 9.68230 24263 ft 384 kts 194°
2026-04-26 18:29 49.95270 9.67375 24263 ft 384 kts 194°
2026-04-26 18:29 49.92654 9.66519 24259 ft 384 kts 194°
2026-04-26 18:29 49.90040 9.65663 24259 ft 384 kts 194°
2026-04-26 18:29 49.87422 9.64805 24256 ft 384 kts 194°
2026-04-26 18:30 49.84846 9.63962 23804 ft 388 kts 194°
2026-04-26 18:30 49.82173 9.63087 23167 ft 396 kts 194°
2026-04-26 18:30 49.79475 9.62208 22585 ft 395 kts 194°
2026-04-26 18:30 49.76789 9.61335 22054 ft 393 kts 194°
2026-04-26 18:31 49.74116 9.60470 21527 ft 391 kts 194°
2026-04-26 18:31 49.72354 9.59902 21187 ft 390 kts 194°
2026-04-26 18:31 49.69706 9.59045 20681 ft 387 kts 194°
2026-04-26 18:31 49.67071 9.58190 20178 ft 385 kts 194°
2026-04-26 18:32 49.63608 9.57067 19538 ft 382 kts 194°
2026-04-26 18:32 49.61011 9.56227 19057 ft 380 kts 194°
2026-04-26 18:32 49.59266 9.55663 18738 ft 379 kts 194°
2026-04-26 18:32 49.56725 9.54844 18214 ft 376 kts 193°
2026-04-26 18:33 49.54164 9.54021 17690 ft 374 kts 193°
2026-04-26 18:33 49.51621 9.53205 17164 ft 372 kts 193°
2026-04-26 18:33 49.49090 9.52394 16648 ft 371 kts 193°
2026-04-26 18:33 49.46575 9.51585 16143 ft 369 kts 193°
2026-04-26 18:34 49.44064 9.50773 15639 ft 367 kts 193°
2026-04-26 18:34 49.41567 9.49964 15148 ft 366 kts 193°
2026-04-26 18:34 49.39084 9.49166 14651 ft 364 kts 193°
2026-04-26 18:34 49.36643 9.48389 14194 ft 362 kts 193°
2026-04-26 18:35 49.34189 9.47610 13750 ft 358 kts 193°
2026-04-26 18:35 49.31764 9.46841 13301 ft 354 kts 193°
2026-04-26 18:35 49.29424 9.45788 12841 ft 347 kts 208°
2026-04-26 18:35 49.27359 9.43955 12409 ft 341 kts 213°
2026-04-26 18:36 49.25373 9.42053 12216 ft 332 kts 214°
2026-04-26 18:36 49.23467 9.40224 12232 ft 315 kts 214°
2026-04-26 18:36 49.21651 9.38489 12237 ft 302 kts 214°
2026-04-26 18:36 49.19879 9.36800 12235 ft 299 kts 214°
2026-04-26 18:37 49.18119 9.35123 12237 ft 298 kts 214°
2026-04-26 18:37 49.16357 9.33446 12236 ft 298 kts 214°
2026-04-26 18:37 49.14599 9.31771 12227 ft 298 kts 214°
2026-04-26 18:37 49.12841 9.30086 12200 ft 298 kts 216°
2026-04-26 18:38 49.11251 9.28162 11863 ft 294 kts 223°
2026-04-26 18:38 49.09720 9.26087 11490 ft 293 kts 224°
2026-04-26 18:38 49.08201 9.24008 11141 ft 292 kts 224°
2026-04-26 18:38 49.06691 9.21943 10776 ft 290 kts 224°
2026-04-26 18:39 49.05189 9.19892 10428 ft 289 kts 224°
2026-04-26 18:39 49.03717 9.17884 10080 ft 288 kts 224°
2026-04-26 18:39 49.02225 9.15851 9688 ft 286 kts 224°
2026-04-26 18:39 49.00746 9.13833 9308 ft 284 kts 224°
2026-04-26 18:40 48.99278 9.11828 9212 ft 284 kts 224°
2026-04-26 18:40 48.97806 9.09817 9217 ft 285 kts 224°
2026-04-26 18:40 48.96338 9.07814 9216 ft 278 kts 224°
2026-04-26 18:40 48.94936 9.05909 9215 ft 262 kts 224°
2026-04-26 18:41 48.93609 9.04102 9217 ft 253 kts 224°
2026-04-26 18:41 48.92306 9.02323 9204 ft 251 kts 224°
2026-04-26 18:41 48.91022 9.00572 8903 ft 249 kts 223°
2026-04-26 18:41 48.89626 8.99024 8549 ft 249 kts 215°
2026-04-26 18:42 48.88166 8.97607 8203 ft 248 kts 214°
2026-04-26 18:42 48.86707 8.96213 7860 ft 247 kts 214°
2026-04-26 18:42 48.85256 8.94824 7528 ft 246 kts 214°
2026-04-26 18:42 48.83811 8.93445 7182 ft 245 kts 214°
2026-04-26 18:43 48.82376 8.92067 6848 ft 244 kts 214°
2026-04-26 18:43 48.80945 8.90690 6500 ft 243 kts 214°
2026-04-26 18:43 48.79535 8.89335 6142 ft 242 kts 213°
2026-04-26 18:43 48.78147 8.87998 6001 ft 231 kts 214°
2026-04-26 18:44 48.76794 8.86785 5857 ft 223 kts 203°
2026-04-26 18:44 48.75280 8.86511 5576 ft 222 kts 172°
2026-04-26 18:44 48.73777 8.87010 5307 ft 220 kts 164°
2026-04-26 18:44 48.72306 8.87597 5098 ft 216 kts 163°
2026-04-26 18:45 48.70902 8.88149 5000 ft 206 kts 163°
2026-04-26 18:45 48.69576 8.88655 5040 ft 190 kts 164°
2026-04-26 18:45 48.68315 8.89130 5015 ft 185 kts 164°
2026-04-26 18:45 48.67070 8.89600 4983 ft 183 kts 164°
2026-04-26 18:46 48.65840 8.90067 4687 ft 183 kts 164°
2026-04-26 18:46 48.64618 8.90591 4372 ft 182 kts 152°
2026-04-26 18:46 48.63743 8.91872 4106 ft 175 kts 113°
2026-04-26 18:46 48.63544 8.93634 4011 ft 171 kts 80°
2026-04-26 18:47 48.63852 8.95368 4008 ft 172 kts 72°
2026-04-26 18:47 48.64187 8.97103 4012 ft 172 kts 73°
2026-04-26 18:47 48.64521 8.98837 4008 ft 172 kts 72°
2026-04-26 18:47 48.64856 9.00576 3907 ft 172 kts 72°
2026-04-26 18:48 48.65189 9.02309 3714 ft 171 kts 73°
2026-04-26 18:48 48.65526 9.04066 3498 ft 170 kts 72°
2026-04-26 18:48 48.65843 9.05719 3281 ft 169 kts 73°
2026-04-26 18:48 48.66170 9.07424 3059 ft 169 kts 72°
2026-04-26 18:49 48.66491 9.09104 2825 ft 161 kts 72°
2026-04-26 18:49 48.66788 9.10660 2633 ft 148 kts 72°
2026-04-26 18:49 48.67067 9.12118 2431 ft 141 kts 72°
2026-04-26 18:49 48.67336 9.13535 2251 ft 140 kts 71°
2026-04-26 18:50 48.67604 9.14946 2034 ft 138 kts 70°
2026-04-26 18:50 48.67875 9.16355 1825 ft 139 kts 71°
2026-04-26 18:50 48.68138 9.17764 1636 ft 139 kts 71°
2026-04-26 18:50 48.68411 9.19173 1462 ft 140 kts 71°
2026-04-26 18:51 48.68677 9.20581 1305 ft 138 kts 71°
2026-04-26 18:51 48.68910 9.21770 1287 ft 83 kts 75°
2026-04-26 18:51 48.68998 9.22244 1287 ft 32 kts 74°
2026-04-26 18:51 48.69040 9.22476 1285 ft 18 kts 73°
2026-04-26 18:52 48.69095 9.22543 1285 ft 10 kts 356°
2026-04-26 18:52 48.69161 9.22518 1285 ft 6 kts 345°
2026-04-26 18:52 48.69186 9.22507 1285 ft 3 kts 343°
2026-04-26 18:52 48.69199 9.22501 1288 ft 1 kts 343°
2026-04-26 18:53 48.69211 9.22495 1289 ft 5 kts 343°
2026-04-26 18:53 48.69263 9.22472 1285 ft 9 kts 343°
2026-04-26 18:53 48.69286 9.22399 1285 ft 8 kts 262°
2026-04-26 18:53 48.69269 9.22312 1285 ft 12 kts 254°
2026-04-26 18:54 48.69239 9.22150 1285 ft 19 kts 254°
2026-04-26 18:54 48.69201 9.21945 1288 ft 21 kts 254°
2026-04-26 18:54 48.69158 9.21721 1287 ft 23 kts 254°
2026-04-26 18:54 48.69111 9.21478 1285 ft 25 kts 253°
2026-04-26 18:55 48.69065 9.21235 1285 ft 23 kts 253°
2026-04-26 18:55 48.69025 9.21023 1285 ft 14 kts 254°
2026-04-26 18:55 48.69005 9.20918 1285 ft 9 kts 253°
2026-04-26 18:55 48.68989 9.20835 1287 ft 8 kts 253°
2026-04-26 18:56 48.68975 9.20760 1289 ft 9 kts 254°
2026-04-26 18:56 48.68958 9.20648 1285 ft 10 kts 277°
2026-04-26 18:56 48.69003 9.20564 1288 ft 11 kts 314°
2026-04-26 18:56 48.69056 9.20482 1287 ft 9 kts 310°
2026-04-26 18:57 48.69054 9.20399 1285 ft 8 kts 254°
2026-04-26 18:57 48.69044 9.20346 1288 ft 10 kts 254°
2026-04-26 18:57 48.69004 9.20135 1289 ft 19 kts 254°
2026-04-26 18:57 48.68966 9.19993 1289 ft 14 kts 237°
2026-04-26 18:58 48.68918 9.19882 1285 ft 12 kts 237°
2026-04-26 18:58 48.68883 9.19786 1289 ft 7 kts 249°
2026-04-26 18:58 48.68872 9.19735 1287 ft 4 kts 253°
2026-04-26 18:58 48.68865 9.19697 1285 ft 3 kts 253°
2026-04-26 18:59 48.68858 9.19664 1288 ft 4 kts 254°
2026-04-26 18:59 48.68845 9.19654 1288 ft 2 kts 184°
2026-04-26 18:59 48.68839 9.19656 1287 ft 4 kts 171°